Location: Prostejov
(49.4670°N, 17.1170°E)
Time: 11:11:34
(UTC+02:00)

ISS - Pass Details

Date: 20 May 2021
Orbit: 417 x 422 km, 51.6° (Epoch: 13 June)

Event Time Altitude Azimuth Distance (km) Brightness Sun altitude
Rises 21:18:44 0° 253° (WSW) 2,358 0.5 -6.4°
Reaches altitude 10° 21:20:49 10° 254° (WSW) 1,497 -0.5 -6.6°
Maximum altitude 21:24:11 85° 340° (NNW) 426 -3.7 -7.0°
Drops below altitude 10° 21:27:34 10° 72° (ENE) 1,504 -1.2 -7.4°
Sets 21:29:41 0° 73° (ENE) 2,371 -0.2 -7.7°
